Flag for Finland Weather past 2 weeks in Kemi, Finland

Now
45 °F

Overcast.


Feels Like: 38 °F
Forecast: 43 / 49 °F
Wind: 13 mph from South

Location: Kemi Airport

Current Time: May 28, 2015 at 1:48:41 AM

Latest Report: May 28, 2015 at 12:50 AM


Visibility: N/A

Pressure: 29.56 "Hg

Humidity: 87%

Dew point: 41 °F

Location of KemiLocation

Historic Weather in Kemi — Graph

°F

Kemi temperature yesterday

Maximum temperature yesterday: 54 °F (at 11:20 AM)
Minimum temperature yesterday: 45 °F (at 3:50 PM)
Average temperature yesterday: 48 °F

Past Weeks' High & Low Weather Summary

 TemperatureHumidityPressure
High59 °F (May 26, 4:50 PM)100% (May 13, 12:50 AM)29.95 "Hg (May 13, 12:50 AM)
Low30 °F (May 18, 3:20 AM)41% (May 18, 3:20 PM)29.18 "Hg (May 23, 4:20 PM)
Average44 °F81%29.69 "Hg
* Reported May 13 12:50 AM — May 28 12:50 AM, Kemi, Weather by CustomWeather, © 2015

Note: Actual official high and low records may vary slightly from our data, if they occured in-between our weather recording intervals... More about our weather records

Advertising

Kemi weather history for previous 24 hours

 ConditionsComfort  
Time TempWeatherWind HumidityBarometerVisibility
12:50 AM
Thu, May 28
45 °FOvercast.13 mph87%29.56 "HgN/A
11:50 PM
Wed, May 27
45 °FPartly sunny.13 mph93%29.56 "HgN/A
11:20 PM45 °FPartly sunny.15 mph93%29.56 "HgN/A
10:57 PM45 °FBroken clouds.15 mph93%29.56 "HgN/A
10:20 PM45 °FLow clouds.15 mph93%29.56 "HgN/A
9:50 PM45 °FLow clouds.15 mph93%29.56 "HgN/A
9:20 PM45 °FMore clouds than sun.15 mph93%29.56 "HgN/A
8:50 PM45 °FBroken clouds.16 mph93%29.59 "HgN/A
8:20 PM46 °FMore clouds than sun.15 mph87%29.59 "HgN/A
7:50 PM46 °FBroken clouds.17 mph87%29.59 "HgN/A
7:20 PM46 °FPartly sunny.16 mph93%29.59 "HgN/A
6:50 PM46 °FPartly sunny.17 mph93%29.59 "HgN/A
6:20 PM46 °FBroken clouds.20 mph87%29.59 "HgN/A
5:50 PM46 °FPartly sunny.17 mph93%29.59 "HgN/A
5:20 PM46 °FLow clouds.14 mph93%29.59 "HgN/A
4:50 PM45 °FLow clouds.14 mph100%29.59 "HgN/A
4:20 PM45 °FSprinkles. Low clouds.17 mph100%29.59 "HgN/A
3:50 PM45 °FLight rain. Mostly cloudy.17 mph100%29.59 "HgN/A
3:20 PM46 °FLight rain. Mostly cloudy.15 mph93%29.59 "Hg3 mi
2:50 PM50 °FRain. Low clouds.13 mph100%29.56 "Hg3 mi
2:20 PM52 °FSprinkles. Low clouds.9 mph94%29.56 "HgN/A
1:50 PM52 °FHeavy rain. Low clouds.9 mph94%29.56 "Hg4 mi
1:20 PM52 °FRain. Overcast.9 mph94%29.56 "Hg4 mi
12:50 PM54 °FLight rain. Partly sunny.6 mph88%29.56 "HgN/A
12:20 PM54 °FPassing clouds.8 mph88%29.56 "HgN/A
11:50 AM54 °FPassing clouds.8 mph88%29.59 "HgN/A
11:20 AM54 °FSprinkles. Overcast.8 mph88%29.59 "HgN/A
10:50 AM52 °FLight rain. Overcast.9 mph94%29.59 "HgN/A
10:20 AM52 °FLight rain. Overcast.8 mph94%29.62 "HgN/A
9:50 AM52 °FLight rain. Overcast.5 mph94%29.65 "HgN/A
9:20 AM50 °FLight rain. Overcast.5 mph94%29.65 "HgN/A
8:50 AM50 °FLight rain. Overcast.7 mph94%29.65 "HgN/A
8:20 AM50 °FLight rain. Overcast.6 mph94%29.65 "HgN/A
7:50 AM50 °FLight rain. Overcast.8 mph94%29.65 "HgN/A
7:20 AM50 °FLight rain. Overcast.7 mph94%29.68 "HgN/A
6:50 AM50 °FPassing clouds.5 mph94%29.68 "HgN/A
6:20 AM50 °FSunny.5 mph94%29.68 "Hg10 mi
5:50 AM48 °FSunny.2 mph100%29.71 "Hg10 mi
5:20 AM48 °FSprinkles. Partly sunny.1 mph100%29.71 "HgN/A
4:50 AM48 °FSprinkles. Overcast.3 mph100%29.71 "HgN/A
4:20 AM48 °FSprinkles. Partly sunny.6 mph100%29.74 "HgN/A
3:50 AM48 °FSprinkles. Passing clouds.5 mph100%29.74 "HgN/A
3:20 AM48 °FClear.2 mph100%29.74 "Hg10 mi
2:50 AM48 °FClear.2 mph100%29.77 "Hg10 mi
2:20 AM48 °FPassing clouds.6 mph94%29.77 "HgN/A
1:50 AM50 °FLight rain. Overcast.5 mph94%29.77 "HgN/A
1:20 AM50 °FRain. Overcast.6 mph94%29.77 "HgN/A
Weather by CustomWeather, © 2015

See weather overviewHow to use our weather pages